Time,TemperatureF,DewpointF,PressureIn,WindDirection,WindDirectionDegrees,WindSpeedMPH,WindSpeedGustMPH,Humidity,HourlyPrecipIn,Conditions,Clouds,dailyrainin,SoftwareType,DateUTC
2013-02-06 00:00:00,24.3,17.5,29.93,NW,315,0.7,0.7,75,0.00,,,0.00,WUHU216HW,2013-02-06 07:00:00,
2013-02-06 00:05:00,24.3,17.5,29.93,NW,315,0.7,0.7,75,0.00,,,0.00,WUHU216HW,2013-02-06 07:05:00,
2013-02-06 00:30:00,23.9,17.5,29.93,WSW,248,2.0,2.0,76,0.00,,,0.00,WUHU216HW,2013-02-06 07:30:00,
2013-02-06 00:35:00,23.9,17.5,29.93,WSW,248,2.0,2.0,76,0.00,,,0.00,WUHU216HW,2013-02-06 07:35:00,
2013-02-06 01:00:00,23.8,17.7,29.93,WSW,248,0.4,0.4,77,0.00,,,0.00,WUHU216HW,2013-02-06 08:00:00,
2013-02-06 01:05:00,23.8,17.7,29.93,WSW,248,0.4,0.4,77,0.00,,,0.00,WUHU216HW,2013-02-06 08:05:00,
2013-02-06 01:30:00,23.0,16.6,29.93,WNW,293,0.0,0.0,76,0.00,,,0.00,WUHU216HW,2013-02-06 08:30:00,
2013-02-06 01:35:00,23.0,16.6,29.93,WNW,293,0.0,0.0,76,0.00,,,0.00,WUHU216HW,2013-02-06 08:35:00,
2013-02-06 02:00:00,22.1,16.0,29.93,WNW,293,0.4,0.4,77,0.00,,,0.00,WUHU216HW,2013-02-06 09:00:00,
2013-02-06 02:05:00,22.1,16.0,29.93,WNW,293,0.4,0.4,77,0.00,,,0.00,WUHU216HW,2013-02-06 09:05:00,
2013-02-06 02:30:00,21.2,15.1,29.93,NW,315,0.7,0.7,77,0.00,,,0.00,WUHU216HW,2013-02-06 09:30:00,
2013-02-06 02:35:00,21.2,15.1,29.93,NW,315,0.7,0.7,77,0.00,,,0.00,WUHU216HW,2013-02-06 09:35:00,
2013-02-06 03:00:00,20.7,14.2,29.93,WSW,248,0.0,0.0,76,0.00,,,0.00,WUHU216HW,2013-02-06 10:00:00,
2013-02-06 03:05:00,20.7,14.2,29.93,WSW,248,0.0,0.0,76,0.00,,,0.00,WUHU216HW,2013-02-06 10:05:00,
2013-02-06 03:30:00,19.8,13.7,29.93,West,270,0.7,0.7,77,0.00,,,0.00,WUHU216HW,2013-02-06 10:30:00,
2013-02-06 03:35:00,19.8,13.7,29.93,West,270,0.7,0.7,77,0.00,,,0.00,WUHU216HW,2013-02-06 10:35:00,
2013-02-06 04:00:00,19.1,13.0,29.94,West,270,0.0,0.0,77,0.00,,,0.00,WUHU216HW,2013-02-06 11:00:00,
2013-02-06 04:05:00,19.1,13.0,29.94,West,270,0.0,0.0,77,0.00,,,0.00,WUHU216HW,2013-02-06 11:05:00,
2013-02-06 04:30:00,18.0,11.9,29.94,SW,225,2.9,2.9,77,0.00,,,0.00,WUHU216HW,2013-02-06 11:30:00,
2013-02-06 04:35:00,18.0,11.9,29.94,SW,225,2.9,2.9,77,0.00,,,0.00,WUHU216HW,2013-02-06 11:35:00,
2013-02-06 05:00:00,18.0,12.3,29.94,WSW,248,2.5,2.5,78,0.00,,,0.00,WUHU216HW,2013-02-06 12:00:00,
2013-02-06 05:05:00,18.0,12.3,29.94,WSW,248,2.5,2.5,78,0.00,,,0.00,WUHU216HW,2013-02-06 12:05:00,
2013-02-06 05:30:00,17.3,11.5,29.95,WNW,293,0.0,0.0,78,0.00,,,0.00,WUHU216HW,2013-02-06 12:30:00,
2013-02-06 05:35:00,17.3,11.5,29.95,WNW,293,0.0,0.0,78,0.00,,,0.00,WUHU216HW,2013-02-06 12:35:00,
2013-02-06 06:00:00,16.6,11.2,29.96,SSE,158,1.3,1.3,79,0.00,,,0.00,WUHU216HW,2013-02-06 13:00:00,
2013-02-06 06:05:00,16.6,11.2,29.96,SSE,158,1.3,1.3,79,0.00,,,0.00,WUHU216HW,2013-02-06 13:05:00,
2013-02-06 06:30:00,16.7,11.6,29.96,NW,315,0.4,0.4,80,0.00,,,0.00,WUHU216HW,2013-02-06 13:30:00,
2013-02-06 06:35:00,16.7,11.6,29.96,NW,315,0.4,0.4,80,0.00,,,0.00,WUHU216HW,2013-02-06 13:35:00,
2013-02-06 07:00:00,16.6,10.9,29.97,NE,45,1.3,1.3,78,0.00,,,0.00,WUHU216HW,2013-02-06 14:00:00,
2013-02-06 07:05:00,16.6,10.9,29.97,NE,45,1.3,1.3,78,0.00,,,0.00,WUHU216HW,2013-02-06 14:05:00,
2013-02-06 07:30:00,16.0,10.6,29.97,North,0,0.7,0.7,79,0.00,,,0.00,WUHU216HW,2013-02-06 14:30:00,
2013-02-06 07:35:00,16.0,10.6,29.97,North,0,0.7,0.7,79,0.00,,,0.00,WUHU216HW,2013-02-06 14:35:00,
2013-02-06 08:00:00,16.0,10.6,29.98,North,0,0.0,0.0,79,0.00,,,0.00,WUHU216HW,2013-02-06 15:00:00,
2013-02-06 08:05:00,16.0,10.6,29.98,North,0,0.0,0.0,79,0.00,,,0.00,WUHU216HW,2013-02-06 15:05:00,
2013-02-06 08:30:00,17.1,12.0,30.00,NNE,23,1.8,1.8,80,0.00,,,0.00,WUHU216HW,2013-02-06 15:30:00,
2013-02-06 08:35:00,17.1,12.0,30.00,NNE,23,1.8,1.8,80,0.00,,,0.00,WUHU216HW,2013-02-06 15:35:00,
2013-02-06 09:00:00,19.8,15.1,30.01,SW,225,0.4,0.4,82,0.00,,,0.00,WUHU216HW,2013-02-06 16:00:00,
2013-02-06 09:05:00,19.8,15.1,30.01,SW,225,0.4,0.4,82,0.00,,,0.00,WUHU216HW,2013-02-06 16:05:00,
2013-02-06 09:30:00,22.5,17.8,30.01,West,270,1.8,1.8,82,0.00,,,0.00,WUHU216HW,2013-02-06 16:30:00,
2013-02-06 09:35:00,22.5,17.8,30.01,West,270,1.8,1.8,82,0.00,,,0.00,WUHU216HW,2013-02-06 16:35:00,
2013-02-06 10:00:00,25.2,20.0,30.01,SW,225,2.2,2.2,80,0.00,,,0.00,WUHU216HW,2013-02-06 17:00:00,
2013-02-06 10:05:00,25.2,20.0,30.01,SW,225,2.2,2.2,80,0.00,,,0.00,WUHU216HW,2013-02-06 17:05:00,
2013-02-06 10:30:00,29.9,24.1,30.01,SW,225,2.5,2.5,79,0.00,,,0.00,WUHU216HW,2013-02-06 17:30:00,
2013-02-06 10:35:00,29.9,24.1,30.01,SW,225,2.5,2.5,79,0.00,,,0.00,WUHU216HW,2013-02-06 17:35:00,
2013-02-06 11:00:00,34.6,26.7,30.02,WSW,248,3.1,3.1,73,0.00,,,0.00,WUHU216HW,2013-02-06 18:00:00,
2013-02-06 11:05:00,34.6,26.7,30.02,WSW,248,3.1,3.1,73,0.00,,,0.00,WUHU216HW,2013-02-06 18:05:00,
2013-02-06 11:30:00,38.3,27.9,30.01,WNW,293,4.9,4.9,66,0.00,,,0.00,WUHU216HW,2013-02-06 18:30:00,
2013-02-06 11:35:00,38.3,27.9,30.01,WNW,293,4.9,4.9,66,0.00,,,0.00,WUHU216HW,2013-02-06 18:35:00,
2013-02-06 12:00:00,41.2,29.2,30.01,WSW,248,3.1,3.1,62,0.00,,,0.00,WUHU216HW,2013-02-06 19:00:00,
2013-02-06 12:05:00,41.2,29.2,30.01,WSW,248,3.1,3.1,62,0.00,,,0.00,WUHU216HW,2013-02-06 19:05:00,
2013-02-06 12:30:00,44.1,26.7,30.00,ENE,68,0.9,0.9,50,0.00,,,0.00,WUHU216HW,2013-02-06 19:30:00,
2013-02-06 12:35:00,44.1,26.7,30.00,ENE,68,0.9,0.9,50,0.00,,,0.00,WUHU216HW,2013-02-06 19:35:00,
2013-02-06 13:00:00,46.1,24.7,30.00,NW,315,2.9,2.9,43,0.00,,,0.00,WUHU216HW,2013-02-06 20:00:00,
2013-02-06 13:05:00,46.1,24.7,30.00,NW,315,2.9,2.9,43,0.00,,,0.00,WUHU216HW,2013-02-06 20:05:00,
2013-02-06 13:30:00,47.2,23.4,29.99,NW,315,1.8,1.8,39,0.00,,,0.00,WUHU216HW,2013-02-06 20:30:00,
2013-02-06 13:35:00,47.2,23.4,29.99,NW,315,1.8,1.8,39,0.00,,,0.00,WUHU216HW,2013-02-06 20:35:00,